Flag for Norway Weather past 2 weeks in Bergen, Norway

Now
74 °F

Partly sunny.


Feels Like: 77 °F
Forecast: 61 / 79 °F
Wind: 3 mph from Northwest

Location: Bergen / Florida

Current Time: Jul 25, 2014 at 6:03:46 PM

Latest Report: Jul 25, 2014 at 5:00 PM


Visibility: 25 mi

Pressure: 30.16 "Hg

Humidity: 62%

Dew point: 61 °F

Location of BergenLocation

Historic Weather in Bergen — Graph

°F

Bergen temperature yesterday

Maximum temperature yesterday: 87 °F (at 5:00 PM)
Minimum temperature yesterday: 65 °F (at 6:00 AM)
Average temperature yesterday: 75 °F

Past Weeks' High & Low Weather Summary

 TemperatureHumidityPressure
High87 °F (Jul 24, 5:00 PM)90% (Jul 16, 5:00 AM)30.34 "Hg (Jul 16, 5:00 AM)
Low56 °F (Jul 16, 2:00 AM)26% (Jul 21, 12:00 PM)29.66 "Hg (Jul 14, 8:00 AM)
Average69 °F64%30.04 "Hg
* Reported Jul 10 5:00 PM — Jul 25 5:00 PM, Bergen, Weather by CustomWeather, © 2014

Note: Actual official high and low records may vary slightly from our data, if they occured in-between our weather recording intervals... More about our weather records

Advertising

Bergen weather history for previous 24 hours

 ConditionsComfort  
Time TempWeatherWind HumidityBarometerVisibility
5:00 PM
Jul 25
74 °FPartly sunny.3 mph62%30.16 "Hg25 mi
4:00 PM77 °FWarm.3 mph56%30.18 "HgN/A
3:00 PM75 °FMild.2 mph63%30.19 "HgN/A
2:00 PM74 °FSprinkles. Overcast.1 mph63%30.20 "Hg22 mi
1:00 PM72 °FMild.1 mph68%30.21 "HgN/A
12:00 PM74 °FMild.2 mph62%30.21 "HgN/A
11:00 AM74 °FOvercast.1 mph65%30.21 "Hg22 mi
10:00 AM72 °FMild.1 mph72%30.21 "HgN/A
9:00 AM71 °FMild.2 mph74%30.20 "HgN/A
8:00 AM71 °FOvercast.2 mph74%30.18 "Hg25 mi
7:00 AM69 °FMild.1 mph78%30.17 "HgN/A
6:00 AM69 °FMild.1 mph77%30.16 "HgN/A
5:00 AM69 °FMild.1 mph76%30.16 "HgN/A
4:00 AM69 °FMild.1 mph73%30.16 "HgN/A
3:00 AM70 °FMild.1 mph69%30.16 "HgN/A
2:00 AM69 °FMild.1 mph68%30.16 "HgN/A
1:00 AM71 °FMild.1 mph69%30.16 "HgN/A
12:00 AM71 °FMild.1 mph70%30.16 "HgN/A
11:00 PM
Jul 24
73 °FPassing clouds.1 mph66%30.16 "Hg31 mi
10:00 PM75 °FMild.1 mph61%30.16 "HgN/A
9:00 PM76 °FMild.1 mph59%30.16 "HgN/A
8:00 PM77 °FPartly sunny.3 mph56%30.16 "Hg34 mi
7:00 PM79 °FWarm.2 mph50%30.16 "HgN/A
6:00 PM85 °FWarm.3 mph43%30.16 "HgN/A
Weather by CustomWeather, © 2014

See weather overviewHow to use our weather pages